Regional Weather Roundup
Issued by NWS Northern Indiana

Home | Current Version | Previous Version | Graphics & Text | Print | Product List | Glossary On
Versions: 1 2 3 4 5 6 7 8 9 10 11 12 13 14 15 16 17 18 19 20 21 22 23 24 25 26 27 28 29 30 31 32 33 34 35 36 37 38 39 40 41 42 43 44 45 46 47 48 49 50
000
ASUS43 KIWX 240601
RWRIWX

KIWX WEATHER ROUNDUP
NATIONAL WEATHER SERVICE NORTHERN INDIANA
200 AM EDT SUN SEP 24 2017

NOTE: "FAIR" INDICATES FEW OR NO CLOUDS BELOW 12,000 FEET WITH NO
SIGNIFICANT WEATHER AND/OR OBSTRUCTIONS TO VISIBILITY.

* THESE STATIONS ARE NOT UNDER NWS QUALITY CONTROL. THEY ALSO MAY NOT
  REPORT WEATHER SUCH AS PRECIPITATION OR FOG.

INZ001>027-240700-
NORTHERN INDIANA

CITY           SKY/WX    TMP DP  RH WIND       PRES   REMARKS
SOUTH BEND     CLEAR     71  66  84 E6        30.10F
6HR MIN TEMP:  70; 6HR MAX TEMP:  84;

GOSHEN         CLEAR     67  61  81 E5        30.10F
6HR MIN TEMP:  67; 6HR MAX TEMP:  81;

FORT WAYNE     CLEAR     68  60  75 E3        30.12R
6HR MIN TEMP:  67; 6HR MAX TEMP:  78;


$$
INZ028>050-240700-
CENTRAL INDIANA

CITY           SKY/WX    TMP DP  RH WIND       PRES   REMARKS
LAFAYETTE      CLEAR     67  65  93 CALM      30.07R
6HR MIN TEMP:  67; 6HR MAX TEMP:  80;

KOKOMO*        CLEAR     68  63  84 E3        30.11R
6HR MIN TEMP:  67; 6HR MAX TEMP:  80; 6HR PCP: TRACE;

MUNCIE*        CLEAR     64  61  90 SE3       30.10S
6HR MIN TEMP:  64; 6HR MAX TEMP:  78;

INDIANAPOLIS   CLEAR     74  64  71 E6        30.07S
6HR MIN TEMP:  73; 6HR MAX TEMP:  83;


$$
MIZ043>046-050>051-056>058-064>065-071>073-077>080-240700-
SOUTHWEST LOWER MICHIGAN

CITY           SKY/WX    TMP DP  RH WIND       PRES   REMARKS
BATTLE CREEK   CLEAR     69  63  81 CALM      30.13F
6HR MIN TEMP:  67; 6HR MAX TEMP:  84;

BENTON HARBOR  CLEAR     68  63  84 CALM      30.09S
6HR MIN TEMP:  67; 6HR MAX TEMP:  76;

COLDWATER*     CLEAR     64  63  97 E5        30.13S
6HR MIN TEMP:  64; 6HR MAX TEMP:  78;

HILLSDALE*     CLEAR     70  54  56 E5        30.15R
HOLLAND        CLEAR     66  62  87 E3        30.11S
6HR MIN TEMP:  65; 6HR MAX TEMP:  79;

GRAND RAPIDS   CLEAR     68  62  81 E3        30.12S
6HR MIN TEMP:  67; 6HR MAX TEMP:  84;

KALAMAZOO      CLEAR     68  61  78 CALM      30.12S
6HR MIN TEMP:  68; 6HR MAX TEMP:  84;

STURGIS*       CLEAR     68  62  81 E3        30.11S
6HR MIN TEMP:  65; 6HR MAX TEMP:  81;

THREE RIVERS*  FAIR      66  64  93 CALM      30.12S
6HR MIN TEMP:  66; 6HR MAX TEMP:  85;


$$
OHZ001>008-015>018-024>025-240700-
NORTHWEST OHIO

CITY           SKY/WX    TMP DP  RH WIND       PRES   REMARKS
DEFIANCE       CLEAR     63  60  90 CALM      30.12S
6HR MIN TEMP:  63; 6HR MAX TEMP:  79;

FINDLAY        CLEAR     65  58  78 CALM      30.11S
6HR MIN TEMP:  65; 6HR MAX TEMP:  81;

TOLEDO EXPRESS CLEAR     66  64  93 CALM      30.12S
6HR MIN TEMP:  66; 6HR MAX TEMP:  74;

TOLEDO METCALF CLEAR     68  60  75 E3        30.13S
6HR MIN TEMP:  67; 6HR MAX TEMP:  77;

LIMA           CLEAR     64  61  90 E5        30.12S
6HR MIN TEMP:  63; 6HR MAX TEMP:  79;


$$
AND FOR LAKE MICHIGAN COASTAL AND OPEN LAKE BUOY OBSERVATIONS

STATION/POSITION TEMP    WIND        PRES    VSBY  WAVE
                 AIR SEA DIR/SP/G                  HT/PER
                 (F)     (DEG/KT/KT) (MB)    (MI)  (FT/S)
CALUMET HARBOR    80     140/  4/  6 1017.5F
MICHIGAN CITY     77     120/  5/  7   N/A
BURNS HARBOR      80     150/  5/ 11 1018.6S
SAINT JOSEPH      74      CALM  /  2 1019.0
SOUTH LAKE BUOY   74 71  100/  8/  8 1018.3          0
4 MI NW BRIDGMAN  74 73  140/  8/ 10 1018.4R         0
MICHIGAN CITY     76 73  140/  4/  6   N/A           0

$$
&&




USA.gov is the U.S. government's official web portal to all federal, state and local government web resources and services.